FW6396 Weather Reports


time (UTC)temp
C
wind
direction
speed
KPH
gust
KPH
rain 1hr
cm
rain 24hr
cm
rain mn
cm
humidity
%
barometer
mb
20260506124601 11 0 0.0 0.0 0.00 0.00 0.00 57 1016.8
20260506123050 10 0 0.0 0.0 0.00 0.00 0.00 58 1016.8
20260506121551 11 0 0.0 0.0 0.00 0.00 0.00 61 1017.0
20260506120051 11 0 0.0 0.0 0.00 0.00 0.00 62 1017.2
20260506114553 10 0 0.0 0.0 0.00 0.00 0.00 62 1017.1
20260506113047 11 0 0.0 0.0 0.00 0.00 0.00 63 1017.1
20260506111551 11 0 0.0 0.0 0.00 0.00 0.00 65 1017.2
20260506110055 10 0 0.0 0.0 0.00 0.00 0.00 63 1017.3
20260506104550 10 0 0.0 0.0 0.00 0.00 0.00 67 1017.4
20260506103054 11 0 0.0 0.0 0.00 0.00 0.00 60 1017.5
20260506101552 10 0 0.0 0.0 0.00 0.00 0.00 66 1017.6
20260506100056 10 0 0.0 0.0 0.00 0.00 0.00 67 1017.6
20260506094555 10 0 0.0 0.0 0.00 0.00 0.00 64 1017.9
20260506093054 10 0 0.0 0.0 0.00 0.00 0.00 67 1018.1
20260506091600 8 0 0.0 0.0 0.00 0.00 0.00 68 1018.2
20260506090058 8 0 0.0 0.0 0.00 0.00 0.00 69 1018.4
20260506084555 7 0 0.0 0.0 0.00 0.00 0.00 69 1018.5
20260506083055 7 0 0.0 0.0 0.00 0.00 0.00 72 1018.6
20260506081554 7 0 0.0 0.0 0.00 0.00 0.00 74 1018.5
20260506080104 6 0 0.0 0.0 0.00 0.00 0.00 76 1018.7
20260506073054 6 0 0.0 0.0 0.00 0.00 0.00 76 1018.7
20260506071604 6 0 0.0 0.0 0.00 0.00 0.00 76 1018.6
20260506061556 2 0 0.0 0.0 0.00 0.00 0.00 89 1018.5
20260506044553 1 0 0.0 0.0 0.00 0.00 0.00 88 1019.0
20260506043050 1 0 0.0 0.0 0.00 0.00 0.00 88 1019.1
20260506041551 1 0 0.0 0.0 0.00 0.00 0.00 88 1019.2
20260506040051 0 0 0.0 0.0 0.00 0.00 0.00 88 1019.1
20260506034603 0 0 0.0 0.0 0.00 0.00 0.00 88 1019.3
20260506033048 0 0 0.0 0.0 0.00 0.00 0.00 87 1019.5
20260506031556 0 0 0.0 0.0 0.00 0.00 0.00 87 1019.4
20260506030053 0 0 0.0 0.0 0.00 0.00 0.00 87 1019.4
20260506024612 0 0 0.0 0.0 0.00 0.00 0.00 86 1019.4
20260506023050 0 0 0.0 0.0 0.00 0.00 0.00 86 1019.5
20260506021557 0 0 0.0 0.0 0.00 0.00 0.00 85 1019.4
20260506020053 1 0 0.0 0.0 0.00 0.00 0.00 85 1019.5
20260506014552 1 0 0.0 0.0 0.00 0.00 0.00 84 1019.6
20260506013103 1 0 0.0 0.0 0.00 0.00 0.00 84 1019.7
20260506011608 1 0 0.0 0.0 0.00 0.00 0.00 83 1019.8
20260506010056 1 0 0.0 0.0 0.00 0.00 0.00 82 1019.8
20260506004551 2 0 0.0 0.0 0.00 0.00 0.00 81 1019.8
20260506003053 2 0 0.0 0.0 0.00 0.00 0.00 79 1020.0
20260506001555 2 0 0.0 0.0 0.00 0.00 0.00 78 1020.0
20260506000055 3 0 0.0 0.0 0.00 0.00 0.00 78 1020.0
20260505234548 3 0 0.0 0.0 0.00 0.00 0.00 77 1020.2
20260505233050 4 0 0.0 0.0 0.00 0.00 0.00 77 1020.2
20260505231552 4 0 0.0 0.0 0.00 0.00 0.00 77 1020.1
20260505230104 5 0 0.0 0.0 0.00 0.00 0.00 75 1020.4
20260505224551 5 0 0.0 0.0 0.00 0.00 0.00 75 1020.3
20260505223106 5 0 0.0 0.0 0.00 0.00 0.00 74 1020.4
20260505221551 5 0 0.0 0.0 0.00 0.00 0.00 74 1020.5
20260505220056 5 0 0.0 0.0 0.00 0.00 0.00 73 1020.5
20260505214548 5 0 0.0 0.0 0.00 0.00 0.00 72 1020.5
20260505213058 6 0 0.0 0.0 0.00 0.00 0.00 72 1020.5
20260505211550 6 0 0.0 0.0 0.00 0.00 0.00 71 1020.4
20260505210047 6 0 0.0 0.0 0.00 0.00 0.00 70 1020.3
20260505204601 6 0 0.0 0.0 0.00 0.00 0.00 70 1020.5
20260505203053 6 0 0.0 0.0 0.00 0.00 0.00 70 1020.6
20260505201552 6 0 0.0 0.0 0.00 0.00 0.00 68 1020.6
20260505200050 6 0 0.0 0.0 0.00 0.00 0.00 67 1020.4
20260505194603 7 0 0.0 0.0 0.00 0.00 0.00 66 1020.4
20260505193052 7 0 0.0 0.0 0.00 0.00 0.00 63 1020.3
20260505191558 7 0 0.0 0.0 0.00 0.00 0.00 63 1020.3
20260505190050 7 0 0.0 0.0 0.00 0.00 0.00 61 1020.1
20260505184552 7 0 0.0 0.0 0.00 0.00 0.00 60 1020.1
20260505183059 8 0 0.0 0.0 0.00 0.00 0.00 58 1020.1
20260505181555 8 0 0.0 0.0 0.00 0.00 0.00 58 1020.1
20260505180056 8 0 0.0 0.0 0.00 0.00 0.00 56 1020.2
20260505174552 8 0 0.0 0.0 0.00 0.00 0.00 55 1020.3
20260505173052 8 0 0.0 0.0 0.00 0.00 0.00 55 1020.2
20260505171552 9 0 0.0 0.0 0.00 0.00 0.00 52 1020.1
20260505170051 10 0 0.0 0.0 0.00 0.00 0.00 54 1020.1
20260505164600 10 0 0.0 0.0 0.00 0.00 0.00 51 1020.1
20260505163100 10 0 0.0 0.0 0.00 0.00 0.00 51 1020.2
20260505161550 10 0 0.0 0.0 0.00 0.00 0.00 47 1020.2
20260505153107 10 0 0.0 0.0 0.00 0.00 0.00 48 1020.1
20260505151557 10 0 0.0 0.0 0.00 0.00 0.00 47 1020.2